Theta_e
324 324 324 323 323 323 322 320 319 320 320 319 319 318 318 318 317 317 316 316 315 315 314 313 311 311 308 309 306 307 308 306 305 306 306 306 305 305 304 304 303 303 302
326 325 324 324 323 323 321 321 320 320 319 319 319 318 318 318 318 317 317 317 316 315 316 315 313 312 311 308 307 307 307 307 306 306 305 305 304 304 303 302 302 301 300
327 327 326 325 324 324 323 321 320 320 319 319 319 318 318 318 318 318 318 317 317 316 316 316 315 313 311 311 309 308 308 308 306 305 304 304 303 303 302 301 301 300 299
328 326 324 324 324 323 323 322 322 321 321 320 320 319 319 319 318 318 318 318 318 317 316 316 315 314 313 312 310 310 308 308 306 306 303 303 302 303 302 301 300 298 297
324 325 325 325 324 323 323 323 323 324 323 322 321 321 320 319 318 318 318 318 318 318 318 317 316 315 314 312 312 311 310 310 308 305 304 304 302 302 302 300 299 298 295
327 325 325 326 325 325 325 324 324 324 323 324 324 322 323 323 321 320 318 318 318 318 317 316 315 315 314 314 311 311 310 309 308 306 306 303 304 302 302 300 299 298 296
328 326 326 326 326 326 325 326 326 326 327 324 324 323 323 322 322 319 320 319 318 318 317 317 316 315 314 315 313 312 311 310 309 308 306 304 303 303 302 301 299 298 297
329 328 328 327 327 325 324 327 326 326 326 326 325 324 320 322 321 321 320 320 320 318 318 318 317 316 316 314 314 314 311 310 310 309 307 305 304 303 302 301 300 298 297
329 330 328 328 327 326 327 325 325 326 326 325 328 323 319 320 321 320 320 319 319 319 318 319 318 317 316 314 313 313 312 311 310 309 309 307 304 303 302 301 300 298 297
327 328 330 329 327 328 327 327 324 326 325 326 327 325 325 324 319 319 319 320 319 319 318 318 317 317 317 316 314 313 312 312 310 309 308 307 306 303 302 301 300 298 297
326 328 329 329 327 327 325 325 325 327 326 324 324 325 323 324 323 320 313 315 319 319 318 318 316 315 316 316 314 313 312 312 310 309 307 306 306 304 302 300 299 298 297
326 326 327 327 326 325 325 324 323 324 324 325 325 326 325 324 323 322 320 319 319 318 317 317 315 315 314 314 315 313 312 310 310 309 308 306 304 302 301 300 297 297 296
319 320 322 323 324 324 326 326 325 323 322 322 321 320 320 319 319 319 319 318 316 316 313 313 311 313 314 313 313 313 312 311 310 308 307 305 304 301 300 299 297 296 295
313 313 313 313 314 314 315 316 317 317 317 320 320 318 319 317 316 316 316 315 314 312 310 310 310 310 310 312 311 311 312 312 311 307 304 304 302 300 299 297 296 293 294
313 313 312 312 312 312 312 312 312 313 313 313 314 317 317 316 314 313 313 313 311 310 310 309 308 309 309 309 310 310 310 310 311 309 303 300 301 299 297 295 295 292 292
312 312 312 312 312 312 312 311 311 311 311 311 312 312 312 312 314 314 311 310 310 309 308 308 308 308 308 308 308 309 309 307 307 308 304 299 299 298 295 295 293 291 291
312 312 312 312 312 312 311 311 311 310 310 310 310 311 311 312 312 312 311 310 309 308 308 307 307 307 307 307 307 307 306 306 306 305 304 297 297 295 293 293 292 290 290
309 309 310 310 311 311 311 311 311 310 309 309 309 309 310 310 310 309 310 309 308 308 307 307 306 306 306 305 306 304 304 303 302 302 299 295 294 293 293 292 291 290 288
306 307 308 308 309 310 311 311 311 310 310 309 308 308 308 308 309 308 309 308 307 307 307 306 306 305 304 304 303 302 301 300 299 298 296 293 291 291 291 290 289 289 288
303 303 303 303 304 305 307 309 309 310 310 309 308 307 307 305 306 306 307 306 306 306 306 305 305 304 303 302 301 300 299 298 296 295 293 291 289 290 289 289 288 287 286
302 302 302 301 302 303 304 306 307 308 308 308 308 307 306 305 305 305 305 305 305 304 304 304 303 303 302 301 301 299 296 295 292 291 290 288 288 288 288 288 287 286 286
300 300 300 300 301 302 303 304 305 305 306 306 306 305 304 304 304 303 304 303 303 303 303 302 302 300 300 299 297 295 292 291 289 290 289 287 287 287 287 287 287 286 285
299 299 300 300 301 301 302 303 304 304 304 304 303 301 302 302 301 301 301 300 301 301 301 299 297 297 296 295 294 293 291 291 290 290 289 287 287 287 288 286 284 285 285
298 297 298 298 299 300 302 302 303 302 302 302 301 300 300 300 299 298 298 299 300 300 298 296 295 294 293 292 292 291 291 290 288 289 288 288 288 287 286 285 285 285 285
296 297 297 297 298 299 301 301 301 300 300 299 297 296 297 298 298 298 298 298 297 295 294 293 293 292 291 291 291 291 290 289 288 288 288 288 288 287 286 286 285 284 284
295 295 296 297 298 299 299 299 299 299 299 297 295 295 295 296 296 296 296 294 292 291 291 290 291 290 290 290 289 290 290 290 290 289 288 287 287 286 285 284 284 284 282
Wind_Speed
7 6 5 4 4 2 1 1 1 1 2 4 5 6 7 8 8 6 5 8 10 14 18 10 8 7 6 6 5 5 6 6 6 7 7 8 7 7 7 7 7 6 6
10 9 8 7 6 4 1 3 3 4 6 8 8 8 9 10 10 10 9 10 12 14 19 20 16 11 10 9 8 7 8 8 9 9 9 9 9 8 8 7 6 5 4
13 12 11 9 8 8 9 9 9 9 9 9 10 11 12 13 16 12 14 15 17 17 19 22 21 17 15 13 12 11 11 12 11 11 12 12 12 11 10 8 7 5 4
15 15 14 12 11 11 12 14 15 16 16 15 16 15 14 15 18 18 18 20 21 22 23 23 25 23 18 18 17 16 15 16 16 15 15 14 14 13 12 11 9 8 7
17 18 17 15 14 16 16 17 18 20 21 22 23 22 22 22 23 23 23 22 25 25 27 27 28 30 29 22 21 21 20 20 19 18 18 17 16 16 15 14 12 11 10
18 17 18 19 19 21 22 23 23 24 23 25 27 28 28 29 30 30 31 31 31 31 32 32 32 33 33 33 26 25 25 24 24 23 21 21 20 18 18 17 15 13 12
24 24 24 21 24 25 25 24 27 29 31 26 30 30 32 34 35 33 35 36 38 37 37 37 36 38 38 37 37 32 29 28 27 28 27 24 23 21 20 19 18 16 14
26 28 29 29 28 27 29 31 30 32 31 33 33 35 34 33 37 35 32 34 37 39 40 41 42 42 42 43 42 41 36 33 31 31 31 28 26 25 24 22 21 19 17
29 30 30 31 30 30 33 30 34 36 34 33 38 34 22 23 27 32 29 28 31 32 34 37 40 45 46 47 46 46 45 42 36 36 35 35 31 27 27 25 23 22 20
25 28 30 31 34 34 35 32 36 35 34 39 36 39 42 43 30 32 31 32 32 34 35 37 38 40 44 49 50 49 49 48 49 45 43 35 35 32 29 27 25 23 22
23 23 25 26 31 33 33 34 36 39 38 38 41 41 41 43 46 48 42 36 41 41 44 42 44 40 42 47 50 51 52 50 52 53 52 42 39 37 32 30 26 24 23
23 23 23 24 27 30 31 33 34 36 38 39 41 44 43 44 43 43 40 53 47 51 50 46 45 45 43 45 48 50 52 53 54 56 56 50 48 48 39 36 27 25 25
19 19 21 24 25 27 30 32 35 37 39 40 41 44 44 45 43 46 47 49 53 52 50 49 50 44 41 44 42 44 44 50 55 58 57 56 52 51 49 46 35 25 25
12 13 15 18 21 24 27 31 34 37 39 41 41 42 44 46 45 44 46 46 49 46 46 54 47 42 41 39 39 35 38 39 45 53 57 53 53 51 50 44 43 26 25
12 13 15 17 19 22 25 28 33 36 38 39 40 42 42 43 45 45 44 43 43 45 49 36 39 38 36 38 37 41 38 38 39 41 46 52 54 48 47 40 40 26 25
17 19 20 22 24 25 26 28 31 35 38 41 41 42 42 42 43 44 43 41 41 43 53 42 43 45 44 42 41 40 39 39 37 38 36 41 50 50 42 35 27 27 26
21 23 25 28 29 29 29 30 31 31 34 37 40 42 43 41 42 43 43 41 41 40 47 51 47 46 47 45 42 37 36 37 37 36 35 39 49 43 31 27 28 28 30
21 23 25 26 28 29 29 30 32 32 33 35 37 39 41 41 43 41 40 41 41 40 42 48 44 46 45 42 40 37 36 36 36 35 30 32 42 37 33 29 28 29 25
22 24 25 27 28 29 30 30 32 34 35 36 36 37 38 37 39 37 36 39 41 40 41 44 46 47 45 41 39 37 36 33 33 28 23 23 35 35 31 30 30 30 24
26 27 28 30 30 31 31 32 34 35 37 38 39 39 38 36 36 34 37 38 38 39 40 41 42 43 42 40 38 36 34 32 28 23 19 23 31 32 28 27 29 23 28
30 34 35 33 33 33 32 33 33 34 36 38 39 39 38 35 33 34 35 36 37 39 39 40 40 42 42 40 40 36 29 24 22 20 17 21 27 26 31 31 27 25 26
33 34 35 37 37 35 35 35 35 36 35 35 36 37 36 33 33 34 35 35 36 37 38 39 40 42 41 36 30 27 25 21 19 18 16 20 23 29 29 29 26 22 26
37 38 39 40 41 40 38 36 35 36 37 36 34 32 31 31 31 33 34 35 36 37 38 37 34 34 30 21 17 16 19 17 19 12 17 21 21 23 21 16 18 21 18
38 40 42 42 43 41 40 39 36 34 33 34 34 34 33 32 30 32 34 33 34 33 31 29 25 21 17 14 10 9 13 13 9 8 14 13 11 14 14 17 18 18 21
42 43 44 45 44 42 39 39 37 36 34 32 30 30 31 31 29 30 32 31 29 25 20 17 14 11 7 7 8 9 12 14 13 9 9 8 11 12 13 14 16 18 17
44 45 45 44 44 44 40 39 36 36 35 31 28 28 28 30 29 28 26 21 18 13 8 7 12 18 17 16 14 11 11 9 7 7 8 12 10 10 9 14 15 15 13
Wind_Direction
242 241 240 233 214 207 59 44 9 12 3 355 350 351 344 336 333 321 258 280 296 297 311 313 275 245 244 227 246 219 211 213 211 197 186 180 176 170 163 158 150 139 124
245 245 244 247 240 229 179 312 308 310 320 324 324 330 326 323 319 306 304 302 281 284 296 302 314 260 236 247 258 241 224 223 221 214 204 205 199 195 189 187 178 168 156
251 251 252 249 257 260 259 275 282 280 282 294 299 299 300 298 296 292 295 289 282 274 278 284 291 298 258 236 243 236 230 228 228 226 221 217 211 214 213 210 205 205 198
248 248 249 253 256 256 265 268 267 265 264 267 261 255 263 275 281 279 279 284 290 284 278 274 280 289 241 244 239 238 237 234 238 232 232 224 223 221 224 223 220 224 228
249 252 256 256 256 260 263 267 273 271 271 272 272 273 271 272 268 262 265 270 271 273 281 277 274 279 282 260 240 241 235 233 234 237 238 231 227 227 227 230 228 235 244
260 259 263 264 262 263 264 268 273 270 278 276 277 274 276 279 279 274 269 263 261 263 262 263 266 271 275 278 253 242 242 244 239 236 233 231 230 228 226 232 235 235 244
255 255 260 263 266 269 270 268 269 274 272 279 273 280 280 281 274 281 273 271 268 268 264 265 264 264 268 272 273 261 243 240 238 239 239 235 234 231 229 232 239 239 241
258 261 264 265 267 265 273 271 269 269 270 272 270 271 273 276 282 277 283 282 275 270 270 270 266 264 267 265 270 271 256 241 240 241 238 241 233 233 233 235 239 243 245
269 262 265 267 269 273 268 271 273 265 268 275 270 262 259 277 285 283 276 279 277 271 275 275 275 267 264 263 264 267 267 264 245 238 238 249 238 233 234 235 240 244 246
275 274 270 272 274 274 275 270 273 273 277 277 267 273 275 277 271 283 274 282 279 277 277 273 273 272 269 267 263 264 264 264 260 248 238 243 236 231 231 234 236 241 245
282 280 275 275 272 275 276 275 271 274 276 273 276 278 279 280 271 267 277 272 276 287 288 277 280 277 275 272 266 264 263 266 260 258 251 245 238 235 238 228 231 237 243
277 276 274 270 271 273 274 274 276 276 275 277 278 278 276 274 273 273 281 284 281 288 287 282 285 276 283 275 276 270 266 265 260 256 255 248 238 240 237 230 231 234 240
278 277 272 271 269 268 271 272 272 272 271 271 272 273 276 275 278 281 281 282 280 287 286 284 284 280 282 282 281 279 275 268 264 257 255 251 247 245 235 239 234 234 241
284 280 276 272 273 273 273 272 272 274 273 271 270 270 272 273 273 273 275 281 283 282 284 288 291 287 289 288 289 282 282 279 267 261 255 251 246 245 237 234 235 234 241
289 286 286 286 286 285 284 282 279 277 277 277 274 273 273 271 274 273 274 272 275 280 283 283 285 286 287 290 292 291 285 284 280 274 257 249 246 242 229 232 244 232 236
299 300 298 296 296 296 295 291 287 285 282 280 279 278 277 277 276 275 277 276 274 274 279 280 282 288 287 289 290 287 288 284 281 275 263 244 240 236 232 239 233 225 229
307 306 305 302 301 300 298 294 292 288 283 281 279 279 278 278 277 276 279 278 276 277 277 285 286 288 286 289 288 286 284 283 280 272 262 230 236 233 229 229 223 225 228
319 315 311 309 308 307 305 302 298 295 290 286 283 277 277 277 275 276 275 277 276 278 277 281 287 285 285 287 287 286 282 279 274 269 259 224 233 229 237 222 224 221 234
322 321 319 317 314 311 308 305 303 301 298 294 291 287 284 277 277 276 273 273 276 277 278 279 284 283 284 285 285 284 282 278 272 268 260 230 227 233 222 217 219 237 235
325 321 321 318 314 310 306 302 299 297 295 294 293 291 288 283 277 277 272 274 274 275 275 276 279 280 281 281 279 277 274 273 270 264 242 216 220 222 221 218 228 230 239
316 316 313 310 310 309 307 302 298 296 294 293 290 289 288 288 282 278 275 275 274 274 273 273 274 276 274 274 276 280 275 267 257 247 238 221 216 214 211 218 229 236 253
315 315 314 313 312 310 308 305 303 301 298 294 292 289 289 287 280 277 274 273 273 273 274 274 274 273 276 277 281 276 260 240 233 235 226 226 215 219 227 226 235 247 263
320 320 319 319 316 315 312 310 309 307 304 300 295 293 287 283 282 280 278 276 272 270 270 269 267 269 274 278 273 263 252 241 236 220 199 199 207 219 229 242 258 257 246
319 319 318 318 316 316 313 310 308 305 303 301 298 294 288 286 282 282 282 279 274 269 265 261 264 264 263 257 247 234 228 212 219 168 178 191 206 232 242 246 240 243 248
315 315 317 316 315 314 311 308 307 305 304 302 299 293 288 286 285 283 281 279 276 271 260 253 249 251 238 189 161 159 162 162 162 181 191 206 206 206 219 229 232 238 253
311 312 312 313 313 312 312 309 307 303 301 299 294 289 285 283 281 276 275 272 267 258 241 186 144 125 117 112 113 114 133 150 161 177 197 212 217 221 224 231 232 246 252